Flag for Norway Weather past 2 weeks in Vadsø, Norway

Now
59 °F

Scattered showers. Partly sunny.


Feels Like: 57 °F
Forecast: 51 / 61 °F
Wind: 12 mph from East

Location: Vadso

Current Time: Jul 31, 2014 at 3:42:49 PM

Latest Report: Jul 31, 2014 at 2:50 PM


Visibility: N/A

Pressure: 29.45 "Hg

Humidity: 88%

Dew point: 55 °F

Location of VadsøLocation

Historic Weather in Vadsø — Graph

°F

Vadsø temperature yesterday

Maximum temperature yesterday: 55 °F (at 2:50 PM)
Minimum temperature yesterday: 46 °F (at 12:50 AM)
Average temperature yesterday: 52 °F

Past Weeks' High & Low Weather Summary

 TemperatureHumidityPressure
High68 °F (Jul 17, 1:50 PM)100% (Jul 19, 8:50 AM)30.33 "Hg (Jul 19, 8:50 AM)
Low46 °F (Jul 21, 10:50 PM)49% (Jul 25, 2:50 PM)29.45 "Hg (Jul 31, 1:50 PM)
Average55 °F82%30.06 "Hg
* Reported Jul 16 2:50 PM — Jul 31 2:50 PM, Vadsø, Weather by CustomWeather, © 2014

Note: Actual official high and low records may vary slightly from our data, if they occured in-between our weather recording intervals... More about our weather records

Advertising

Vadsø weather history for previous 24 hours

 ConditionsComfort  
Time TempWeatherWind HumidityBarometerVisibility
2:50 PM
Jul 31
59 °FScattered showers. Partly sunny.12 mph88%29.45 "HgN/A
1:50 PM59 °FScattered showers. Partly sunny.12 mph88%29.45 "HgN/A
12:50 PM57 °FScattered showers. Partly sunny.7 mph94%29.47 "HgN/A
12:20 PM57 °FScattered showers. Partly sunny.7 mph88%29.47 "HgN/A
10:50 AM55 °FSprinkles. Partly sunny.7 mph94%29.50 "HgN/A
9:50 AM55 °FSprinkles. Partly sunny.8 mph94%29.50 "HgN/A
8:50 AM55 °FRain showers. Broken clouds.8 mph88%29.53 "HgN/A
8:20 AM55 °FRain showers. Broken clouds.8 mph88%29.56 "HgN/A
7:20 AM54 °FRain showers. Broken clouds.8 mph94%29.59 "HgN/A
5:50 AM55 °FBroken clouds.13 mph88%29.62 "HgN/A
4:50 AM55 °FBroken clouds.6 mph88%29.65 "HgN/A
12:50 AM52 °FLight rain. Partly sunny.6 mph94%29.74 "HgN/A
11:50 PM
Jul 30
52 °FLight rain. Passing clouds.9 mph94%29.74 "HgN/A
10:50 PM52 °FPartly cloudy.6 mph94%29.77 "HgN/A
9:50 PM55 °FDrizzle. Broken clouds.6 mph77%29.77 "HgN/A
8:50 PM55 °FBroken clouds.10 mph77%29.77 "HgN/A
7:50 PM54 °FBroken clouds.9 mph82%29.80 "HgN/A
6:50 PM54 °FPartly sunny.10 mph77%29.80 "HgN/A
5:50 PM54 °FPartly sunny.13 mph77%29.83 "HgN/A
4:50 PM54 °FPartly sunny.14 mph77%29.83 "HgN/A
3:50 PM55 °FPartly sunny.13 mph72%29.86 "HgN/A
Weather by CustomWeather, © 2014

See weather overviewHow to use our weather pages